User: anonymous   Login
Location: Unspecified
(0.0000°N, 0.0000°E)
Time: 19:43:50
(UTC+00:00)
Language:

UWE-2 - Orbit

View from above orbital plane
View from above orbital plane
View from above satellite
View from above satellite

Ground track
Ground track

The orbit data is extracted from the following two-line orbital elements,

1 35934U 09051D   19340.74034951 +.00000094 +00000-0 +32609-4 0  9996
2 35934 098.5995 149.6292 0006925 027.7880 332.3686 14.55896666541577
Epoch (UTC): 06 December 2019 17:46:06
Eccentricity: 0.0006925
inclination: 98.5995°
perigee height: 701 km
apogee height: 711 km
right ascension of ascending node: 149.6292°
argument of perigee: 27.7880°
revolutions per day: 14.55896666
mean anomaly at epoch: 332.3686°
orbit number at epoch: 54157

The dashed part of the orbit path shows where the satellite is in the earth's shadow,  

DLR